Radiation Dose at Monitoring Post of Fukushima Daini Nuclear Power Station
Date,Time,MP-1(microSv/h),MP-2(microSv/h),MP-3(microSv/h),MP-4(microSv/h),MP-5(microSv/h),MP-6(microSv/h),MP-7(microSv/h),Wind Direction,Wind Velocity(m/s),Rain
2020/05/20,00:00,0.167,0.158,0.249,0.236,0.251,0.135,0.086,north,10.6,Yes
2020/05/20,00:10,0.165,0.158,0.247,0.237,0.253,0.135,0.086,north,10.1,Yes
2020/05/20,00:20,0.164,0.157,0.247,0.236,0.253,0.134,0.085,north,10.3,Yes
2020/05/20,00:30,0.166,0.157,0.248,0.236,0.252,0.133,0.085,north,10.1,Yes
2020/05/20,00:40,0.166,0.157,0.246,0.236,0.252,0.133,0.085,north,10.3,Yes
2020/05/20,00:50,0.165,0.157,0.247,0.236,0.252,0.133,0.084,north,8.3,Yes
2020/05/20,01:00,0.166,0.156,0.247,0.236,0.250,0.134,0.085,north,10.0,Yes
2020/05/20,01:10,0.164,0.156,0.246,0.235,0.251,0.133,0.084,north,11.7,Yes
2020/05/20,01:20,0.165,0.156,0.246,0.237,0.251,0.131,0.084,north,10.7,Yes
2020/05/20,01:30,0.164,0.157,0.247,0.235,0.251,0.132,0.085,north,10.3,Yes
2020/05/20,01:40,0.166,0.155,0.247,0.235,0.251,0.132,0.083,north,8.8,Yes
2020/05/20,01:50,0.164,0.155,0.246,0.236,0.251,0.132,0.083,north,10.6,Yes
2020/05/20,02:00,0.165,0.155,0.247,0.238,0.250,0.133,0.084,north,11.7,Yes
2020/05/20,02:10,0.165,0.155,0.248,0.236,0.251,0.132,0.083,north,10.4,Yes
2020/05/20,02:20,0.166,0.156,0.248,0.236,0.251,0.132,0.083,north,11.2,Yes
2020/05/20,02:30,0.164,0.155,0.247,0.235,0.250,0.132,0.083,north,8.8,Yes
2020/05/20,02:40,0.166,0.155,0.247,0.236,0.250,0.132,0.083,north,11.5,Yes
2020/05/20,02:50,0.166,0.155,0.246,0.236,0.250,0.132,0.083,north,10.3,Yes
2020/05/20,03:00,0.165,0.155,0.246,0.236,0.251,0.132,0.083,north,11.7,Yes
2020/05/20,03:10,0.165,0.155,0.247,0.237,0.251,0.132,0.082,north,12.0,Yes
2020/05/20,03:20,0.166,0.155,0.246,0.235,0.249,0.132,0.083,north,10.6,Yes
2020/05/20,03:30,0.165,0.155,0.247,0.235,0.250,0.132,0.082,north,9.8,Yes
2020/05/20,03:40,0.167,0.155,0.246,0.237,0.251,0.131,0.082,north,9.0,Yes
2020/05/20,03:50,0.165,0.156,0.246,0.235,0.250,0.132,0.083,north,10.4,Yes
2020/05/20,04:00,0.165,0.155,0.247,0.236,0.249,0.131,0.082,north,12.2,Yes
2020/05/20,04:10,0.165,0.155,0.247,0.236,0.250,0.131,0.082,north-northwest,9.8,Yes
2020/05/20,04:20,0.165,0.156,0.246,0.236,0.251,0.132,0.082,north-northwest,9.6,Yes
2020/05/20,04:30,0.165,0.154,0.246,0.235,0.248,0.131,0.082,north-northwest,10.1,Yes
2020/05/20,04:40,0.165,0.155,0.248,0.235,0.249,0.132,0.082,north,10.0,Yes
2020/05/20,04:50,0.166,0.154,0.246,0.236,0.250,0.130,0.082,north-northwest,9.2,Yes
2020/05/20,05:00,0.166,0.154,0.246,0.235,0.250,0.131,0.082,north,9.6,Yes
2020/05/20,05:10,0.166,0.155,0.246,0.236,0.250,0.131,0.082,north-northwest,9.6,Yes
2020/05/20,05:20,0.165,0.155,0.246,0.236,0.250,0.131,0.082,north-northwest,10.6,Yes
2020/05/20,05:30,0.166,0.154,0.247,0.235,0.250,0.132,0.082,north-northwest,10.1,Yes
2020/05/20,05:40,0.166,0.155,0.245,0.235,0.252,0.131,0.082,north-northwest,10.4,Yes
2020/05/20,05:50,0.165,0.154,0.246,0.236,0.250,0.131,0.082,north-northwest,9.8,Yes
2020/05/20,06:00,0.166,0.154,0.246,0.235,0.250,0.131,0.082,north-northwest,11.4,Yes
2020/05/20,06:10,0.166,0.153,0.246,0.234,0.251,0.131,0.082,north-northwest,10.4,Yes
2020/05/20,06:20,0.166,0.154,0.246,0.236,0.251,0.131,0.081,north-northwest,10.1,Yes
2020/05/20,06:30,0.165,0.155,0.247,0.235,0.249,0.131,0.082,north-northwest,9.2,Yes
2020/05/20,06:40,0.166,0.154,0.247,0.236,0.249,0.131,0.082,north-northwest,10.4,Yes
2020/05/20,06:50,0.167,0.154,0.247,0.236,0.251,0.131,0.082,northwest,10.3,Yes
2020/05/20,07:00,0.166,0.154,0.247,0.236,0.250,0.131,0.082,north-northwest,11.2,Yes
2020/05/20,07:10,0.166,0.153,0.247,0.236,0.250,0.132,0.082,north-northwest,10.1,Yes
2020/05/20,07:20,0.168,0.153,0.247,0.236,0.251,0.131,0.082,north-northwest,10.4,Yes
2020/05/20,07:30,0.167,0.154,0.246,0.236,0.250,0.131,0.082,north-northwest,11.4,Yes
2020/05/20,07:40,0.166,0.154,0.247,0.237,0.249,0.131,0.081,north-northwest,10.4,Yes
2020/05/20,07:50,0.167,0.154,0.249,0.236,0.249,0.131,0.082,north-northwest,11.4,Yes
2020/05/20,08:00,0.168,0.153,0.247,0.236,0.249,0.131,0.082,north-northwest,11.8,Yes
2020/05/20,08:10,0.167,0.154,0.247,0.237,0.250,0.131,0.082,north-northwest,12.0,Yes
2020/05/20,08:20,0.167,0.153,0.247,0.236,0.251,0.132,0.082,north-northwest,12.2,Yes
2020/05/20,08:30,0.168,0.154,0.246,0.236,0.250,0.132,0.082,north-northwest,10.9,Yes
2020/05/20,08:40,0.167,0.154,0.248,0.237,0.250,0.130,0.082,north-northwest,10.9,Yes
2020/05/20,08:50,0.167,0.155,0.247,0.236,0.251,0.132,0.082,north-northwest,10.4,Yes
2020/05/20,09:00,0.168,0.154,0.247,0.237,0.250,0.132,0.082,north-northwest,12.6,Yes
2020/05/20,09:10,0.167,0.154,0.249,0.236,0.250,0.132,0.081,northwest,10.3,Yes
2020/05/20,09:20,0.167,0.154,0.247,0.237,0.250,0.132,0.081,north-northwest,11.7,Yes
2020/05/20,09:30,0.166,0.154,0.247,0.237,0.250,0.132,0.082,north-northwest,11.2,Yes
2020/05/20,09:40,0.167,0.154,0.248,0.236,0.250,0.131,0.081,north-northwest,11.4,Yes
2020/05/20,09:50,0.168,0.154,0.246,0.237,0.250,0.131,0.081,north-northwest,11.4,Yes
2020/05/20,10:00,0.167,0.154,0.248,0.237,0.249,0.131,0.081,north-northwest,11.8,Yes
2020/05/20,10:10,0.168,0.155,0.248,0.237,-,0.132,0.081,north-northwest,10.1,Yes
2020/05/20,10:20,0.167,0.154,0.248,0.237,-,0.132,0.082,north-northwest,10.4,Yes
2020/05/20,10:30,0.167,0.154,0.248,0.237,-,0.130,0.082,north-northwest,10.7,Yes
2020/05/20,10:40,0.168,0.154,0.248,0.237,-,0.132,0.082,north-northwest,9.2,Yes
2020/05/20,10:50,0.167,0.155,0.247,0.238,-,0.133,0.082,north-northwest,10.9,Yes
2020/05/20,11:00,0.168,0.155,0.248,0.238,-,0.132,0.082,north-northwest,11.5,Yes
2020/05/20,11:10,0.167,0.154,0.248,0.237,-,0.133,0.082,north-northwest,10.4,Yes
2020/05/20,11:20,0.167,0.155,0.248,0.237,-,0.132,0.081,north-northwest,10.3,Yes
2020/05/20,11:30,0.167,0.154,0.247,0.237,-,0.132,0.082,north-northwest,9.2,Yes
2020/05/20,11:40,0.168,0.154,0.248,0.238,-,0.131,0.081,north-northwest,10.7,Yes
2020/05/20,11:50,0.167,0.154,0.248,0.238,-,0.133,0.081,north-northwest,8.4,Yes
2020/05/20,12:00,0.167,0.155,0.248,0.237,-,0.131,0.081,north-northwest,10.6,Yes
2020/05/20,12:10,0.168,0.153,0.247,0.236,-,0.131,0.081,north-northwest,10.4,Yes
2020/05/20,12:20,0.168,0.154,0.248,0.237,-,0.132,0.080,north-northwest,9.0,Yes
2020/05/20,12:30,0.167,0.155,0.248,0.238,-,0.133,0.081,north,10.7,Yes
2020/05/20,12:40,0.168,0.154,0.250,0.238,-,0.132,0.081,north,11.8,Yes
2020/05/20,12:50,0.167,0.153,0.248,0.236,-,0.133,0.081,north-northwest,10.0,Yes
2020/05/20,13:00,0.168,0.154,0.248,0.238,-,0.132,0.081,north,12.0,No
2020/05/20,13:10,0.168,0.154,0.249,0.237,0.239,0.132,0.081,north-northwest,9.0,No
2020/05/20,13:20,0.168,0.154,0.249,0.236,0.241,0.132,0.080,north,9.2,Yes
2020/05/20,13:30,0.168,0.155,0.247,0.237,0.240,0.132,0.080,north,12.0,Yes
2020/05/20,13:40,0.168,0.154,0.249,0.238,0.242,0.131,0.082,north-northwest,11.2,Yes
2020/05/20,13:50,0.168,0.155,0.249,0.237,0.242,0.132,0.081,north,9.3,Yes
2020/05/20,14:00,0.169,0.154,0.249,0.237,0.240,0.132,0.081,north,9.8,Yes
2020/05/20,14:10,0.168,0.155,0.249,0.237,0.242,0.133,0.081,north-northwest,10.3,Yes
2020/05/20,14:20,0.168,0.155,0.250,0.238,0.241,0.132,0.081,north-northwest,9.8,Yes
2020/05/20,14:30,0.168,0.155,0.249,0.239,0.241,0.132,0.080,north-northwest,8.9,Yes
2020/05/20,14:40,0.168,0.154,0.250,0.238,0.242,0.132,0.081,north-northwest,10.6,Yes
2020/05/20,14:50,0.169,0.154,0.249,0.237,0.242,0.133,0.082,north-northwest,10.1,Yes
2020/05/20,15:00,0.169,0.155,0.248,0.239,0.241,0.133,0.081,north-northwest,9.2,Yes
2020/05/20,15:10,0.168,0.153,0.249,0.238,0.242,0.133,0.082,north-northwest,10.3,Yes
2020/05/20,15:20,0.168,0.154,0.250,0.236,0.241,0.134,0.082,north-northwest,8.4,Yes
2020/05/20,15:30,0.169,0.155,0.249,0.237,0.241,0.133,0.081,north,10.1,Yes
2020/05/20,15:40,0.168,0.155,0.249,0.239,0.241,0.133,0.081,north-northwest,8.8,Yes
2020/05/20,15:50,0.168,0.155,0.250,0.237,0.241,0.133,0.081,north-northwest,9.5,Yes
2020/05/20,16:00,0.168,0.154,0.249,0.238,0.242,0.133,0.080,north-northwest,7.8,Yes
2020/05/20,16:10,0.169,0.154,0.249,0.239,0.242,0.132,0.081,north-northwest,9.5,Yes
2020/05/20,16:20,0.168,0.154,0.249,0.239,0.241,0.134,0.081,north-northwest,9.0,Yes
2020/05/20,16:30,0.169,0.155,0.249,0.237,0.241,0.133,0.081,north,9.5,Yes
2020/05/20,16:40,0.169,0.155,0.249,0.237,0.241,0.132,0.080,north-northwest,8.6,Yes
2020/05/20,16:50,0.168,0.154,0.250,0.238,0.240,0.133,0.082,north-northwest,9.3,Yes
2020/05/20,17:00,0.168,0.154,0.249,0.237,0.241,0.133,0.081,north,7.6,Yes
2020/05/20,17:10,0.169,0.153,0.250,0.239,0.241,0.133,0.081,north-northwest,8.7,Yes
2020/05/20,17:20,0.168,0.154,0.250,0.237,0.241,0.133,0.081,north-northwest,8.2,Yes
2020/05/20,17:30,0.168,0.155,0.247,0.238,0.242,0.133,0.081,north-northwest,8.1,Yes
2020/05/20,17:40,0.169,0.154,0.249,0.237,0.241,0.131,0.081,north-northwest,8.5,Yes
2020/05/20,17:50,0.168,0.154,0.249,0.237,0.241,0.132,0.082,north-northwest,8.1,Yes
2020/05/20,18:00,0.168,0.154,0.250,0.237,0.241,0.132,0.081,north-northwest,7.5,Yes
2020/05/20,18:10,0.169,0.154,0.249,0.236,0.241,0.133,0.082,north-northwest,7.8,Yes
2020/05/20,18:20,0.168,0.154,0.249,0.237,0.241,0.133,0.081,north-northwest,7.9,Yes
2020/05/20,18:30,0.169,0.155,0.249,0.237,0.241,0.134,0.082,north-northwest,8.3,Yes
2020/05/20,18:40,0.169,0.155,0.249,0.237,0.242,0.134,0.082,north-northwest,9.0,Yes
2020/05/20,18:50,0.169,0.155,0.249,0.237,0.242,0.133,0.082,north-northwest,8.7,Yes
2020/05/20,19:00,0.168,0.155,0.250,0.239,0.242,0.133,0.082,north-northwest,9.0,Yes
2020/05/20,19:10,0.169,0.155,0.249,0.236,0.242,0.133,0.081,north-northwest,7.7,Yes
2020/05/20,19:20,0.169,0.154,0.248,0.236,0.241,0.133,0.082,north-northwest,7.4,Yes
2020/05/20,19:30,0.169,0.154,0.248,0.237,0.240,0.133,0.081,north-northwest,8.5,Yes
2020/05/20,19:40,0.169,0.155,0.248,0.237,0.242,0.133,0.081,north-northwest,8.6,Yes
2020/05/20,19:50,0.167,0.153,0.247,0.237,0.240,0.133,0.082,north-northwest,8.2,Yes
2020/05/20,20:00,0.169,0.154,0.248,0.236,0.239,0.132,0.082,north-northwest,8.4,Yes
2020/05/20,20:10,0.168,0.154,0.248,0.236,0.241,0.133,0.082,north-northwest,8.1,Yes
2020/05/20,20:20,0.168,0.154,0.248,0.236,0.240,0.132,0.081,north-northwest,8.8,Yes
2020/05/20,20:30,0.169,0.154,0.248,0.237,0.240,0.132,0.082,north-northwest,8.1,Yes
2020/05/20,20:40,0.167,0.154,0.248,0.237,0.241,0.132,0.082,northwest,7.7,Yes
2020/05/20,20:50,0.167,0.154,0.250,0.236,0.240,0.133,0.081,northwest,7.4,Yes
2020/05/20,21:00,0.167,0.153,0.248,0.236,0.239,0.132,0.081,north-northwest,7.6,Yes
2020/05/20,21:10,0.168,0.154,0.247,0.237,0.241,0.131,0.081,north-northwest,8.6,Yes
2020/05/20,21:20,0.167,0.154,0.247,0.236,0.240,0.132,0.081,north-northwest,8.2,Yes
2020/05/20,21:30,0.167,0.154,0.248,0.236,0.240,0.132,0.081,north-northwest,7.6,Yes
2020/05/20,21:40,0.167,0.153,0.247,0.237,0.240,0.132,0.081,north-northwest,7.6,Yes
2020/05/20,21:50,0.168,0.155,0.247,0.236,0.240,0.133,0.081,north-northwest,8.2,Yes
2020/05/20,22:00,0.168,0.154,0.248,0.236,0.240,0.133,0.081,north-northwest,7.7,Yes
2020/05/20,22:10,0.168,0.153,0.248,0.235,0.240,0.132,0.081,north-northwest,8.1,Yes
2020/05/20,22:20,0.168,0.153,0.248,0.236,0.240,0.133,0.081,north-northwest,7.1,Yes
2020/05/20,22:30,0.167,0.154,0.248,0.236,0.240,0.132,0.081,north-northwest,8.1,Yes
2020/05/20,22:40,0.167,0.154,0.249,0.235,0.240,0.132,0.081,north-northwest,9.0,Yes
2020/05/20,22:50,0.168,0.153,0.248,0.236,0.241,0.131,0.081,north-northwest,8.1,Yes
2020/05/20,23:00,0.168,0.154,0.247,0.238,0.240,0.132,0.081,north-northwest,7.6,Yes
2020/05/20,23:10,0.166,0.154,0.249,0.235,0.240,0.133,0.081,north-northwest,8.2,Yes
2020/05/20,23:20,0.166,0.154,0.249,0.237,0.240,0.132,0.081,north-northwest,7.1,Yes
2020/05/20,23:30,0.168,0.153,0.248,0.237,0.239,0.132,0.081,north-northwest,6.5,No
2020/05/20,23:40,0.167,0.154,0.248,0.236,0.240,0.132,0.080,north-northwest,7.0,Yes
2020/05/20,23:50,0.167,0.154,0.248,0.237,0.241,0.133,0.081,north-northwest,6.7,Yes
